Content
SEND FEEDBACK

Daily
Averages
Monthly
Summary
United States of America

MONTOURSVILLE, PENNSYLVANIA


Home > North America > United States > Pennsylvania
Elevation: 52 feet     Latitude: 41 15N     Longitude: 076 55W

WEATHER
 
SELECT A DAY
Number of Records: 416,405;   Date Range: 1/1/95 - 11/24/14
 
SHARE

PRINT THIS DATA

[ ← Previous Day ]
WEATHER ALMANAC - FEBRUARY 13, 2013
[ Next Day → ]
[ °C ]   °F
Weather ElementAverageHighLow
Temperature31.6 °F39 °F (12:54 pm)21 °F (6:54 am)
Dewpoint26.9 °F32 °F (7:29 pm)18 °F (6:54 am)
Humidity84.4 %100 % (7:36 pm)53 % (12:54 pm)
Barometer29.79 in29.96 in (1:54 am)29.71 in (4:54 pm)
Wind Speed0.6 mph4.6 mph (12:54 pm)
Weather ElementAverage
Visibility5.3 mi
Wind DirectionNNE (24.6 °)

Weather ElementTotal
Precipitation0.14 in
Heating Degree Days35 (Base 65)
Averaged from 35 records on February 13, 2013
WEATHER CONDITIONS BREAKOUT
WIND DIRECTION BREAKOUT
WEATHER BY HOUR - FEBRUARY 13, 2013
[ °C ]   °F
Local TimeTemperatureDewpointHumidityBarometerVisibilityWind DirectionWind SpeedGust SpeedPrecipitationEventsConditions
1:54 AM24.1 °F21.0 °F88 %29.96 in9.0 miCalmClear
2:54 AM24.1 °F21.0 °F88 %29.95 in8.0 miCalmClear
3:54 AM23.0 °F19.9 °F88 %29.93 in8.0 miCalmClear
4:54 AM23.0 °F19.0 °F85 %29.93 in9.0 miCalmClear
5:54 AM21.9 °F19.0 °F89 %29.93 in8.0 miCalmClear
6:54 AM21.0 °F18.0 °F88 %29.91 in6.0 miCalmClear
7:54 AM23.0 °F19.9 °F88 %29.91 in7.0 miCalmClear
8:54 AM25.0 °F21.9 °F88 %29.88 in8.0 miCalmClear
9:54 AM28.0 °F23.0 °F81 %29.87 in9.0 miCalmClear
10:54 AM30.0 °F24.1 °F79 %29.86 in10.0 miCalmClear
11:54 AM36.0 °F24.1 °F62 %29.84 in10.0 miCalmClear
12:54 PM39.0 °F23.0 °F53 %29.80 in10.0 miVariable4.6 mphClear
1:54 PM39.0 °F23.0 °F53 %29.77 in10.0 miCalmClear
2:54 PM39.0 °F24.1 °F55 %29.73 in10.0 miCalmClear
3:54 PM37.9 °F24.1 °F57 %29.72 in10.0 miCalmMostly Cloudy
4:54 PM37.9 °F24.1 °F57 %29.71 in10.0 miCalmOvercast
5:54 PM37.9 °F24.1 °F57 %29.71 in10.0 miVariable4.6 mphOvercast
6:38 PM35.6 °F28.4 °F75 %29.71 in4.0 miCalm0.00 inSnowLight Snow
6:54 PM34.0 °F30.9 °F89 %29.74 in3.0 miCalm0.00 inSnowLight Snow
7:20 PM33.8 °F30.2 °F87 %29.72 in2.5 miCalm0.00 inSnowLight Snow
7:29 PM33.8 °F32.0 °F93 %29.73 in1.2 miCalm0.01 inSnowLight Snow
7:36 PM32.0 °F32.0 °F100 %29.73 in0.8 miCalm0.02 inSnowLight Snow
7:47 PM32.0 °F32.0 °F100 %29.73 in0.8 miCalm0.03 inSnowLight Snow
7:54 PM32.0 °F32.0 °F100 %29.75 in0.8 miCalm0.03 inSnowLight Snow
8:09 PM32.0 °F32.0 °F100 %29.73 in0.8 miCalm0.01 inSnowLight Snow
8:39 PM32.0 °F32.0 °F100 %29.73 in0.8 miCalm0.02 inSnowLight Snow
8:54 PM32.0 °F32.0 °F100 %29.75 in1.0 miCalm0.02 inSnowLight Snow
9:54 PM32.0 °F30.9 °F96 %29.74 in1.2 miNW (310°)3.5 mph0.00 inOvercast
10:07 PM33.8 °F32.0 °F93 %29.73 in2.0 miCalmOvercast
10:18 PM33.8 °F32.0 °F93 %29.73 in1.8 miCalmOvercast
10:42 PM32.0 °F30.2 °F93 %29.73 in1.5 miCalmOvercast
10:54 PM33.1 °F32.0 °F96 %29.75 in2.0 miCalmOvercast
11:20 PM33.8 °F32.0 °F93 %29.73 in2.5 miCalmOvercast
11:36 PM33.8 °F32.0 °F93 %29.74 in2.5 miWest (280°)3.5 mphOvercast
11:54 PM33.1 °F32.0 °F96 %29.76 in3.0 miWest (270°)3.5 mphOvercast
Hourly data recorded from KIPT, located miles away from Montoursville, Pennsylvania







STORIES FROM OUR PARTNERS